DELTA 1 DEB, 29183

Orbit data source: Space-Track

DELTA 1 DEB, 29183 is space debris in LEO originally from a launch on Thu, 11 Jan 1968 UTC launched from the Air Force Western Test Range (AFWTR). Debris objects in space refer to the collection of defunct objects orbiting the Earth. Examples of debris include non-operational satellites, rocket bodies, and fragments generated from explosions, collisions, or faulty payload assembly.

Loading next visibility...
Identifier
29183, 1968-002G
Orbit
LEO
Last TLE update
1 week ago
Origin
Manufacturer
Unknown
Mission
Spacecraft
Bus & Motor
Unknown
Mass
Unknown
Launch date (UTC)
1968-01-11 (57 years ago)
Launch vehicle
Unknown
Launch site
Air Force Western Test Range (AFWTR)
Object type
Payload
Rocket body
Debris
Shape & HBR
Unknown
Radar Cross Section
Small (<0.1 m²)

Expand to show TLE details & history

TLE from 1 week ago
0 DELTA 1 DEB
1 29183U 68002G   25122.07251453  .00003846  00000-0  64575-2 0  9998
2 29183 105.8166  81.4836 0237934 318.9351 101.0361 13.36700127 36562
Epoch: 2025-05-02T01:44Z
Definitive object data (Epoch: 2025-05-02T01:44:25.255Z)
Latitude
58.79866°
Longitude
167.41048°
Altitude
1,169.406 km
Speed
7.256 km/s
True Right ascension
03h 35m 00s
True Declination
58° 39' 16"
Sunlit
Object was in daylight at TLE epoch
Visualization TLE readout
Latitude
72.08608°
Longitude
145.53213°
Altitude
1,257.82 km
Speed
7.173 km/s
Apparent Right ascension
02h 18m 59s
Apparent Declination
23° 38' 15"
Sunlit
Object is in daylight
Visualization observer readout
Local Sidereal Time
14:24:31
Azimuth
1.414° NNE
Elevation
-26.433°
Doppler factor
1
Orbital elements
Apogee altitude
1,297.708 km
Perigee altitude
940.928 km
Semi-major axis
7,497.455 km
Eccentricity
0.0237934
Inclination
105.8166°
RAAN
81.4836°
Arg. of periapsis
318.9351°
True anomaly
103.69609°
Mean anomaly
101.0361°
Eccentric anomaly
102.36772°
Mean motion
3.34328 °/min
BSTAR
0.0064575
Orbital period
107.68 mins
Loading maneuver chart data...
Loading SW <> Apogee altitude chart data...
Loading historical data...
Loading historical data...
Loading historical data...
Loading historical data...
Loading historical data...
Loading historical data...
Loading historical data...

DELTA 1 DEB Visibility forecast

Observer location: undefined°, undefined°

Span
Click to sort rows by Start time (UTC) header in descending order
Start Az.
Max El. time (UTC)
Max El. Az.
Max El.
End time (UTC)
End Az.
13 mins2025-05-09 10:03:43.163Z37.569° NE2025-05-09 10:09:43.163Z100.518° ESE35.978°2025-05-09 10:16:43.163Z177.43° S
12 mins2025-05-09 11:49:43.163Z3.757° NNE2025-05-09 11:54:43.163Z310.696° NW33.245°2025-05-09 12:01:43.163Z238.268° WSW
11 mins2025-05-09 20:21:43.163Z127.201° SE2025-05-09 20:26:43.163Z63.274° ENE37.041°2025-05-09 20:32:43.163Z349.777° N
9 mins2025-05-09 22:08:43.163Z208.768° SW2025-05-09 22:12:43.163Z262.38° W27.92°2025-05-09 22:17:43.163Z314.626° NW
|